Weather History for Cadillac, MI

Change the Weather History Date:

Saturday, September 22, 2012

  Actual Average Record
Temperature  
Mean Temperature 48 °F -  
Max Temperature 56 °F 61 °F 82 °F (2004)
Min Temperature 39 °F 43 °F 24 °F (1979)
Degree Days  
Heating Degree Days 18    
Moisture  
Dew Point 41 °F    
Average Humidity 82    
Maximum Humidity 90    
Minimum Humidity 54    
Precipitation  
Precipitation 0.00 in - - ()
Sea Level Pressure  
Sea Level Pressure 29.84 in    
Wind  
Wind Speed 4 mph (WNW)    
Max Wind Speed 20 mph    
Max Gust Speed 29 mph    
Visibility 10 miles    
Events Rain    
Averages and records for this station are not official NWS values.
T = Trace of Precipitation, MM = Missing Value Source: NWS Daily Summary

Daily Weather History Graph

Daily Weather History Graph

Search for Another Location

Airport:

Trip Planner

Search our weather history database for the weather conditions in past years. The results will help you decide how hot, cold, wet, or windy it might be!

Date:

Astronomy

Sep. 22, 2012 Rise Set
Actual Time 7:29 AM EDT 7:38 PM EDT
Civil Twilight 7:00 AM EDT 8:07 PM EDT
Nautical Twilight 6:26 AM EDT 8:40 PM EDT
Astronomical Twilight 5:51 AM EDT 9:15 PM EDT
Moon 2:59 PM EDT (9/22) No Moon Set
Length of Visible Light 13h 06m
Length of Day
12h 08m
Waxing Crescent, 48% of the Moon is Illuminated
Sep 22
Waxing Crescent
Sep 22
First Quarter
Sep 29
Full
Oct 8
Last Quarter
Oct 15
New

Hourly Weather History & Observations

Time (EDT) Temp. Windchill Dew Point Humidity Pressure Visibility Wind Dir Wind Speed Gust Speed Precip Events Conditions
12:14 AM 46.4 °F - 43.7 °F 90% 29.73 in 10.0 mi Calm Calm - N/A   Overcast
12:34 AM 47.7 °F - 44.6 °F 89% 29.72 in 10.0 mi Calm Calm - N/A   Overcast
12:54 AM 46.4 °F - 43.3 °F 89% 29.71 in 10.0 mi Calm Calm - N/A   Drizzle
1:14 AM 46.4 °F - 43.7 °F 90% 29.70 in 10.0 mi Calm Calm - N/A Rain Rain
1:34 AM 46.4 °F - 43.2 °F 88% 29.70 in 10.0 mi Calm Calm - N/A   Drizzle
1:54 AM 47.3 °F - 44.2 °F 89% 29.69 in 10.0 mi Calm Calm - N/A Rain Light Rain
2:14 AM 47.7 °F - 44.6 °F 89% 29.70 in 10.0 mi WSW 3.5 mph - N/A   Overcast
2:34 AM 46.4 °F - 43.3 °F 89% 29.70 in 10.0 mi Calm Calm - N/A   Drizzle
2:54 AM 46.4 °F - 43.0 °F 88% 29.69 in 10.0 mi Calm Calm - N/A   Overcast
3:14 AM 46.4 °F - 43.0 °F 88% 29.69 in 10.0 mi Calm Calm - N/A   Overcast
3:54 AM 45.7 °F 43.4 °F 42.8 °F 90% 29.69 in 10.0 mi West 4.6 mph - N/A Rain Rain
4:14 AM 46.2 °F 44.1 °F 43.2 °F 89% 29.69 in 10.0 mi WNW 4.6 mph - N/A Rain Rain
4:34 AM 45.1 °F 39.9 °F 42.3 °F 90% 29.70 in 10.0 mi NW 10.4 mph 17.3 mph N/A Rain Light Rain
4:54 AM 45.1 °F 39.9 °F 41.9 °F 88% 29.71 in 10.0 mi NW 10.4 mph - N/A Rain Rain
5:14 AM 43.9 °F 38.8 °F 40.5 °F 88% 29.72 in 7.0 mi WNW 9.2 mph 17.3 mph N/A Rain Rain
5:34 AM 43.9 °F 39.9 °F 40.1 °F 87% 29.70 in 10.0 mi North 6.9 mph - N/A Rain Light Rain
5:54 AM 43.9 °F 39.3 °F 40.3 °F 87% 29.73 in 10.0 mi WNW 8.1 mph - N/A   Overcast
6:14 AM 43.7 °F 41.1 °F 39.9 °F 87% 29.73 in 10.0 mi North 4.6 mph - N/A Rain Rain
6:34 AM 42.4 °F 38.1 °F 39.0 °F 88% 29.73 in 10.0 mi North 6.9 mph - N/A Rain Light Rain
6:54 AM 42.4 °F 39.6 °F 39.2 °F 88% 29.74 in 10.0 mi NNW 4.6 mph - N/A   Drizzle
7:14 AM 42.4 °F - 39.4 °F 89% 29.74 in 10.0 mi Calm Calm - N/A   Overcast
7:34 AM 42.4 °F - 39.6 °F 90% 29.75 in 10.0 mi Calm Calm - N/A   Overcast
7:54 AM 42.4 °F 39.6 °F 39.7 °F 90% 29.76 in 10.0 mi SW 4.6 mph - N/A   Overcast
8:14 AM 42.4 °F 39.6 °F 39.7 °F 90% 29.76 in 10.0 mi WSW 4.6 mph - N/A   Overcast
8:34 AM 42.3 °F - 39.4 °F 90% 29.77 in 10.0 mi Calm Calm - N/A   Mostly Cloudy
8:54 AM 42.3 °F - 39.4 °F 90% 29.77 in 10.0 mi Calm Calm - N/A   Scattered Clouds
9:14 AM 44.1 °F - 40.5 °F 87% 29.78 in 10.0 mi Calm Calm - N/A   Clear
9:34 AM 48.9 °F - 43.7 °F 82% 29.78 in 10.0 mi WNW 3.5 mph - N/A   Clear
9:54 AM 51.4 °F - 45.3 °F 80% 29.80 in 10.0 mi West 5.8 mph - N/A   Clear
10:14 AM 51.4 °F - 43.5 °F 74% 29.80 in 10.0 mi NW 5.8 mph - N/A   Scattered Clouds
10:54 AM 51.8 °F - 42.6 °F 71% 29.80 in 10.0 mi WNW 12.7 mph - N/A   Mostly Cloudy
11:14 AM 52.2 °F - 42.1 °F 69% 29.80 in 10.0 mi NW 10.4 mph - N/A   Mostly Cloudy
11:35 AM 51.4 °F - 40.3 °F 66% 29.81 in 10.0 mi WNW 13.8 mph 19.6 mph N/A   Overcast
11:54 AM 51.4 °F - 44.2 °F 76% 29.82 in 10.0 mi NW 10.4 mph - N/A Rain Light Rain
12:14 PM 51.4 °F - 42.3 °F 71% 29.82 in 10.0 mi WNW 9.2 mph 19.6 mph N/A   Clear
12:34 PM 55.9 °F - 44.2 °F 65% 29.82 in 10.0 mi WNW 9.2 mph - N/A   Scattered Clouds
1:14 PM 47.8 °F - 42.4 °F 82% 29.85 in 10.0 mi NW 6.9 mph - N/A   Mostly Cloudy
1:34 PM 51.4 °F - 45.1 °F 79% 29.85 in 10.0 mi NW 8.1 mph - N/A   Clear
2:14 PM 54.0 °F - 44.1 °F 69% 29.85 in 10.0 mi West 11.5 mph - N/A   Mostly Cloudy
2:34 PM 52.5 °F - 42.4 °F 69% 29.86 in 10.0 mi NW 10.4 mph - N/A Rain Light Rain
2:54 PM 55.2 °F - 43.2 °F 64% 29.86 in 10.0 mi NW 9.2 mph 21.9 mph N/A   Mostly Cloudy
3:14 PM 56.5 °F - 39.7 °F 54% 29.87 in 10.0 mi WNW 19.6 mph 28.8 mph N/A   Mostly Cloudy
3:34 PM 51.4 °F - 42.8 °F 72% 29.90 in 10.0 mi NNW 12.7 mph 27.6 mph N/A Rain Light Rain
4:14 PM 51.4 °F - 43.3 °F 74% 29.92 in 10.0 mi WNW 12.7 mph - N/A Rain Light Rain
4:34 PM 52.7 °F - 40.6 °F 64% 29.92 in 10.0 mi NW 12.7 mph 20.7 mph N/A   Scattered Clouds
4:54 PM 50.0 °F - 41.0 °F 71% 29.93 in 10.0 mi NNW 12.7 mph 24.2 mph N/A Rain Light Rain
5:54 PM 51.4 °F - 40.1 °F 65% 29.96 in 10.0 mi NNW 8.1 mph 17.3 mph N/A   Scattered Clouds
6:15 PM 50.4 °F - 41.9 °F 73% 29.98 in 5.0 mi NW 15.0 mph 26.5 mph N/A Rain Heavy Rain
6:34 PM 46.6 °F - 41.2 °F 81% 29.99 in 10.0 mi WNW 9.2 mph - N/A   Overcast
6:54 PM 46.2 °F 41.7 °F 40.5 °F 80% 29.99 in 10.0 mi West 9.2 mph - N/A   Mostly Cloudy
7:15 PM 45.1 °F 42.0 °F 39.6 °F 81% 30.00 in 10.0 mi WNW 5.8 mph - N/A   Mostly Cloudy
7:34 PM 44.4 °F 42.9 °F 40.1 °F 85% 30.01 in 3.0 mi WNW 3.5 mph 21.9 mph N/A Rain Rain
7:54 PM 42.4 °F 40.7 °F 38.7 °F 86% 30.01 in 10.0 mi West 3.5 mph - N/A   Scattered Clouds
8:14 PM 41.2 °F 38.2 °F 38.3 °F 89% 30.00 in 10.0 mi WSW 4.6 mph - N/A   Clear
8:34 PM 41.2 °F 39.2 °F 38.3 °F 89% 30.00 in 10.0 mi West 3.5 mph - N/A   Clear
8:54 PM 41.2 °F 39.2 °F 38.5 °F 90% 30.01 in 10.0 mi West 3.5 mph - N/A   Clear
9:14 PM 41.2 °F - 38.5 °F 90% 30.02 in 10.0 mi Calm Calm - N/A   Scattered Clouds
9:34 PM 41.5 °F 37.1 °F 38.5 °F 89% 30.03 in 10.0 mi NW 6.9 mph - N/A   Mostly Cloudy
9:54 PM 41.2 °F 39.2 °F 37.4 °F 86% 30.03 in 10.0 mi WNW 3.5 mph - N/A   Scattered Clouds
10:14 PM 41.2 °F 39.2 °F 37.8 °F 88% 30.03 in 10.0 mi West 3.5 mph - N/A   Scattered Clouds
10:34 PM 39.9 °F 37.8 °F 36.7 °F 88% 30.03 in 10.0 mi NW 3.5 mph - N/A   Clear
10:54 PM 41.2 °F 36.0 °F 37.4 °F 86% 30.04 in 10.0 mi NW 8.1 mph 16.1 mph N/A   Clear
11:14 PM 41.2 °F 35.5 °F 37.4 °F 86% 30.05 in 10.0 mi NW 9.2 mph 17.3 mph N/A   Mostly Cloudy
11:34 PM 41.2 °F 36.6 °F 37.4 °F 86% 30.05 in 10.0 mi NW 6.9 mph - N/A   Mostly Cloudy
11:54 PM 41.2 °F 37.3 °F 37.6 °F 87% 30.05 in 10.0 mi WNW 5.8 mph - N/A   Mostly Cloudy